Regional Weather Roundup
Issued by NWS Cleveland, OH

Home | Current Version | Previous Version | Graphics & Text | Print | Product List | Glossary On
Versions: 1 2 3 4 5 6 7 8 9 10 11 12 13 14 15 16 17 18 19 20 21 22 23 24 25 26 27 28 29 30 31 32 33 34 35 36 37 38 39 40 41 42 43 44 45 46 47 48 49 50
000
ASUS41 KCLE 190410
RWRCLE
OHIO REGIONAL WEATHER ROUNDUP
NATIONAL WEATHER SERVICE WILMINGTON, OH
1200 AM EDT SUN APR 19 2015

NOTE: "FAIR" INDICATES FEW OR NO CLOUDS BELOW 12,000 FEET WITH NO
SIGNIFICANT WEATHER AND/OR OBSTRUCTIONS TO VISIBILITY.

OHZ001>008-015>018-024>027-034-035-043-044-190500-
   NORTHWEST OHIO

CITY           SKY/WX    TMP DP  RH WIND       PRES   REMARKS
DEFIANCE       CLOUDY    54  33  45 E10       30.07F
FINDLAY        CLOUDY    54  38  54 NE16      30.05F
TOLEDO EXPRESS MOCLDY    50  34  54 E13       30.09F
TOLEDO EXEC    MOCLDY    48  37  65 NE8       30.11F
LIMA           MOCLDY    55  37  50 E12       30.04F
$$

OHZ009>014-019>023-028>033-038-089-190500-
   NORTHEAST OHIO

CITY           SKY/WX    TMP DP  RH WIND       PRES   REMARKS
CLE-HOPKINS    MOCLDY    50  33  52 N7        30.11F
CLE-LAKEFRONT  MOCLDY    48  44  86 NE5       30.10S
CUY CO. ARPT   NOT AVBL
LORAIN-ELYRIA  MOCLDY    49  35  58 NE7       30.09F
ASHTABULA      MOCLDY    52  22  30 E5        30.14R
AKRON-CANTON   MOCLDY    57  32  38 NE9       30.09F
WOOSTER        CLOUDY    56  36  47 NE12      30.07F
MANSFIELD      CLOUDY    55  32  41 NE9       30.07F
YOUNGSTOWN     MOCLDY    54  32  43 E8        30.11R
$$

OHZ042-051>053-060>062-070>072-077>081-190500-
  SOUTHWEST OHIO

CITY           SKY/WX    TMP DP  RH WIND       PRES   REMARKS
CINC-COVINGTON CLOUDY    69  45  41 E13       29.95F
CINC-LUNKEN    CLOUDY    59  55  87 CALM      29.95F
HAMILTON       CLOUDY    67  49  52 NE10      29.96F
DAYTON         MOCLDY    62  48  60 NE10      30.01F
WRIGHT-PAT AFB CLOUDY    61  50  66 NE8       30.00S
DAYTON GENERAL CLOUDY    64  50  60 E10       29.98F
WILMINGTON     MOCLDY    62  46  55 NE8       29.99S
$$

OHZ036-037-039>041-045>050-054>059-063>069-073>076-082>088-190500-
  CENTRAL AND SOUTHEAST OHIO

CITY           SKY/WX    TMP DP  RH WIND       PRES   REMARKS
COLUMBUS       CLOUDY    62  41  46 E10       30.01F
OSU AIRPORT    MOCLDY    61  39  44 NE10      30.02F
BOLTON FIELD   MOCLDY    62  46  55 NE6       30.02S
RICKENBACK AFB MOCLDY    61  47  60 NE12      30.00F
NEWARK         MOCLDY    62  42  47 NE5       30.02F
MARION         CLOUDY    54  37  52 NE12      30.05F
LANCASTER      MOCLDY    62  48  60 NE9       30.02F
ZANESVILLE     MOCLDY    62  43  49 NE5       30.03F
NEW PHILLY     CLOUDY    64  38  38 NE5       30.07F
$$



USA.gov is the U.S. government's official web portal to all federal, state and local government web resources and services.